Home > Weather > Podgorica > Past weeks

Flag for Montenegro Past Weather in Podgorica, Montenegro — Yesterday and Last 2 Weeks

Now
79 °F

Passing clouds.


Feels Like: 81 °F
Forecast: 71 / 91 °F
Wind: 6 mph from North

Location: Podgorica Titograd

Current Time: Jul 28, 2016 at 8:45:11 AM

Latest Report: Jul 28, 2016 at 8:00 AM


Visibility: N/A

Pressure: 29.92 "Hg

Humidity: 61%

Dew Point: 64 °F

Location of PodgoricaLocation

Past Weather in Podgorica — Graph

°F

Podgorica Temperature Yesterday

Maximum temperature yesterday: 91 °F (at 2:00 PM)
Minimum temperature yesterday: 68 °F (at 3:30 AM)
Average temperature yesterday: 81 °F

High & Low Weather Summary for the Past Weeks

 TemperatureHumidityPressure
High97 °F (Jul 13, 3:30 PM)100% (Jul 17, 4:30 AM)30.01 "Hg (Jul 17, 4:30 AM)
Low61 °F (Jul 16, 4:30 AM)24% (Jul 19, 2:30 PM)29.65 "Hg (Jul 15, 6:00 PM)
Average80 °F53%29.90 "Hg
* Reported Jul 13 7:00 AM — Jul 28 7:30 AM, Podgorica, Weather by CustomWeather, © 2016

Note: Actual official high and low records may vary slightly from our data, if they occured in-between our weather recording intervals... More about our weather records

Advertising

Podgorica Weather History for the Previous 24 Hours

Scroll right to see more
 ConditionsComfort  
Time TempWeatherWind HumidityBarometerVisibility
7:30 AM
Thu, Jul 28
77 °FPassing clouds.6 mph65%29.92 "HgN/A
7:00 AM75 °FPassing clouds.5 mph69%29.92 "HgN/A
6:30 AM75 °FClear.5 mph65%29.92 "Hg10 mi
6:00 AM73 °FClear.No wind74%29.92 "Hg10 mi
5:30 AM73 °FClear.1 mph74%29.92 "Hg10 mi
5:00 AM73 °FClear.7 mph74%29.92 "Hg10 mi
4:30 AM73 °FClear.7 mph74%29.92 "Hg10 mi
4:00 AM73 °FClear.6 mph74%29.92 "Hg10 mi
3:30 AM75 °FClear.5 mph69%29.92 "Hg10 mi
3:00 AM75 °FClear.3 mph69%29.92 "Hg10 mi
2:30 AM75 °FPassing clouds.6 mph65%29.92 "HgN/A
2:00 AM75 °FPassing clouds.3 mph74%29.92 "HgN/A
1:30 AM75 °FClear.2 mph74%29.92 "Hg10 mi
1:00 AM77 °FClear.No wind74%29.92 "Hg10 mi
12:30 AM77 °FClear.3 mph69%29.92 "Hg10 mi
12:00 AM77 °FClear.2 mph74%29.92 "Hg10 mi
11:30 PM
Wed, Jul 27
77 °FPassing clouds.5 mph74%29.92 "HgN/A
11:00 PM79 °FClear.2 mph70%29.92 "Hg10 mi
10:30 PM81 °FClear.3 mph66%29.92 "Hg10 mi
10:00 PM81 °FClear.5 mph66%29.89 "Hg10 mi
9:30 PM81 °FClear.2 mph62%29.89 "Hg10 mi
9:00 PM81 °FPassing clouds.3 mph66%29.89 "HgN/A
8:30 PM82 °FPassing clouds.7 mph62%29.89 "HgN/A
8:00 PM84 °FPassing clouds.8 mph62%29.86 "HgN/A
7:30 PM88 °FPassing clouds.3 mph49%29.86 "HgN/A
7:00 PM90 °FPassing clouds.3 mph46%29.86 "HgN/A
6:30 PM90 °FPassing clouds.6 mph43%29.86 "HgN/A
6:00 PM91 °FPassing clouds.3 mph41%29.86 "HgN/A
5:30 PM91 °FPassing clouds.3 mph41%29.86 "HgN/A
5:00 PM91 °FPassing clouds.3 mph38%29.86 "HgN/A
4:30 PM91 °FPassing clouds.5 mph36%29.86 "HgN/A
4:00 PM91 °FPassing clouds.3 mph32%29.86 "HgN/A
3:30 PM91 °FPassing clouds.3 mph34%29.86 "HgN/A
3:00 PM91 °FPassing clouds.3 mph36%29.89 "HgN/A
2:30 PM91 °FPassing clouds.3 mph34%29.89 "HgN/A
2:00 PM91 °FPassing clouds.3 mph34%29.89 "HgN/A
1:30 PM90 °FPassing clouds.5 mph41%29.89 "HgN/A
1:00 PM90 °FPassing clouds.3 mph41%29.92 "HgN/A
12:30 PM88 °FPassing clouds.3 mph46%29.92 "HgN/A
12:00 PM88 °FPassing clouds.3 mph46%29.92 "HgN/A
11:30 AM86 °FPassing clouds.5 mph49%29.92 "HgN/A
11:00 AM86 °FPassing clouds.2 mph46%29.92 "HgN/A
10:30 AM86 °FPassing clouds.2 mph43%29.92 "HgN/A
10:00 AM84 °FPassing clouds.2 mph48%29.92 "HgN/A
9:30 AM82 °FPassing clouds.1 mph48%29.92 "HgN/A
9:00 AM81 °FPassing clouds.1 mph58%29.92 "HgN/A
8:30 AM79 °FSunny.2 mph65%29.92 "Hg10 mi
8:00 AM75 °FPassing clouds.3 mph74%29.92 "HgN/A
Weather by CustomWeather, © 2016

See weather overviewHow to use our weather pages